Location: Woodhurst
(52.3667°N, 0.0667°W)
Time: 15:36:49
(UTC+00:00)

Cosmos 2219 Rocket - Pass Details

Date: 19 May 2025
Orbit: 828 x 844 km, 71.0° (Epoch: 17 June)

Event Time Altitude Azimuth Distance (km) Brightness Sun altitude
Rises 22:18:22 0° 328° (NNW) 3,403 7.2 -14.5°
Reaches altitude 10° 22:21:17 10° 342° (NNW) 2,463 6.0 -14.7°
Maximum altitude 22:25:54 25° 37° (NE) 1,629 4.0 -15.0°
Drops below altitude 10° 22:30:29 10° 92° (E) 2,445 4.4 -15.3°
Enters shadow 22:32:29 - 102° (ESE) 3,079 4.8 -15.4°
